Weather Roundup
Issued by NWS Chicago, IL

Home | Current Version | Previous Version | Graphics & Text | Print | Product List | Glossary On
Versions: 1 2 3 4 5 6 7 8 9 10 11 12 13 14 15 16 17 18 19 20 21 22 23 24 25 26 27 28 29 30 31 32 33 34 35 36 37 38 39 40 41 42 43 44 45 46 47 48 49 50
000
NZUS59 KLOT 262310
HRRLOT

CHICAGO AREA WEATHER ROUNDUP
NATIONAL WEATHER SERVICE CHICAGO/ROMEOVILLE IL
500 PM CST WED NOV 26 2014

NOTE: "FAIR" INDICATES FEW OR NO CLOUDS BELOW 12,000 FEET WITH NO
SIGNIFICANT WEATHER AND/OR OBSTRUCTIONS TO VISIBILITY.

* THESE STATIONS ARE NOT UNDER NWS QUALITY CONTROL. THEY ALSO MAY NOT
  REPORT WEATHER SUCH AS PRECIPITATION OR FOG.

ILZ005-006-012>014-019>023-270000-
NORTHEAST ILLINOIS

CITY           SKY/WX    TMP DP  RH WIND       PRES   REMARKS
OHARE          CLOUDY    28  21  75 E5        30.11S WCI  23
MIDWAY         CLOUDY    29  20  69 E6        30.12F WCI  23
AURORA         MOCLDY    24  17  74 NE3       30.12S
LANSING*       CLOUDY    27  20  73 NE3       30.12S
JOLIET*        CLOUDY    26  19  76 NE3       30.12S
WAUKEGAN       CLOUDY    28  23  81 VRB5      30.12S WCI  23
DUPAGE AIRPORT MOCLDY    26  19  74 E3        30.11S
WHEELING       CLOUDY    29  22  75 CALM      30.14S
KANKAKEE*      CLOUDY   N/A N/A N/A NE6       30.11S
MORRIS*        CLOUDY    27  22  83 E3        30.12R
LEWIS AIRPORT* CLOUDY    26  20  77 NE7       30.12S WCI  19
NORTHERLY IS     N/A     29  22  75 N6          N/A  WCI  23
$$

WIZ051-052-058>065-066-070>072-270000-
SOUTHEAST WISCONSIN

CITY           SKY/WX    TMP DP  RH WIND       PRES   REMARKS
MILWAUKEE      CLOUDY    30  21  69 N5        30.13S WCI  25
KENOSHA*       CLOUDY    28  23  81 NW7       30.13R WCI  21
RACINE*        CLOUDY    29  22  75 NW5       30.15S WCI  24
BURLINGTON     CLOUDY    25  22  89 NW5       30.14R WCI  19
WAUKESHA       CLOUDY    25  21  86 NW8       30.14S FOG     WCI  16
WEST BEND      CLOUDY    27  21  80 NW6       30.15R WCI  20
$$

INZ001>003-010>013-019-020-270000-
NORTHWEST INDIANA

CITY           SKY/WX    TMP DP  RH WIND       PRES   REMARKS
GARY*          NOT AVBL
MICHIGAN CITY* NOT AVBL
RENSSELAER*    NOT AVBL
VALPARAISO     CLOUDY    26  19  74 NE6       30.11F WCI  19
$$

LMZ740>746-270000-
SOUTHERN LAKE MICHIGAN

STATION/POSITION TIME  SKY/WX   TEMP WIND        PRES    VSBY
                                AIR  DIR/SP/G
                 (UTC)          (F)  (DEG/KT/KT) (MB)    (MI)
HARRISON CRIB    2300            28   90/  7/  9   N/A
BURNHAM HARBOR   2300            28   90/  2/  5   N/A
CALUMET HARBOR   2300            28   CALM  /  3 1018.8S
BURNS HARBOR     NOT AVBL
MICHIGAN CITY    2300            27   70/  5/  6   N/A
$$

ABBREVIATIONS USED IN REMARKS
   TC - TEMPERATURE IN CELSIUS
  WCI - WIND CHILL INDEX
   HX - HEAT INDEX
  VSB - VISIBILITY
$$


USA.gov is the U.S. government's official web portal to all federal, state and local government web resources and services.